Flag for Saudi Arabia Weather past 2 weeks in Medina, Saudi Arabia

Now
111 °F

Scattered clouds.


Feels Like: 103 °F
Forecast: 86 / 111 °F
Wind: 9 mph from West

Location: Madinah

Current Time: Aug 30, 2015 at 5:58:58 PM

Latest Report: Aug 30, 2015 at 5:00 PM


Visibility: N/A

Pressure: 29.74 "Hg (27.86 "Hg at 606m altitude)

Humidity: 6%

Dew point: 28 °F

Location of MedinaLocation

Historic Weather in Medina — Graph

°F

Medina temperature yesterday

Maximum temperature yesterday: 113 °F (at 2:00 PM)
Minimum temperature yesterday: 88 °F (at 7:00 AM)
Average temperature yesterday: 101 °F

Past Weeks' High & Low Weather Summary

 TemperatureHumidityPressure
High115 °F (Aug 20, 2:00 PM)41% (Aug 26, 8:00 AM)29.92 "Hg (Aug 26, 8:00 AM)
Low86 °F (Aug 28, 6:00 AM)1% (Aug 18, 3:00 PM)29.71 "Hg (Aug 22, 4:00 PM)
Average102 °F11%29.82 "Hg
* Reported Aug 15 4:00 PM — Aug 30 4:00 PM, Medina, Weather by CustomWeather, © 2015

Note: Actual official high and low records may vary slightly from our data, if they occured in-between our weather recording intervals... More about our weather records

Advertising

Medina weather history for previous 24 hours

 ConditionsComfort  
Time TempWeatherWind HumidityBarometerVisibility
4:00 PM
Sun, Aug 30
111 °FScattered clouds.9 mph4%29.77 "HgN/A
3:00 PM113 °FScattered clouds.14 mph4%29.80 "HgN/A
1:00 PM111 °FSunny.6 mph6%29.86 "Hg10 mi
12:00 PM109 °FSunny.6 mph7%29.86 "Hg6 mi
11:00 AM108 °FSunny.5 mph8%29.89 "Hg4 mi
10:00 AM104 °FSunny.No wind9%29.89 "Hg4 mi
9:00 AM100 °FSunny.No wind12%29.89 "Hg4 mi
8:00 AM97 °FPassing clouds.No wind14%29.89 "Hg4 mi
7:00 AM93 °FPassing clouds.7 mph19%29.89 "Hg4 mi
6:00 AM91 °FPassing clouds.6 mph20%29.86 "HgN/A
5:00 AM95 °FClear.7 mph18%29.86 "Hg10 mi
4:00 AM95 °FClear.8 mph19%29.86 "Hg10 mi
3:00 AM97 °FClear.3 mph13%29.86 "Hg10 mi
2:00 AM97 °FClear.7 mph14%29.86 "Hg10 mi
1:00 AM99 °FPassing clouds.9 mph16%29.89 "HgN/A
12:00 AM100 °FPassing clouds.9 mph12%29.89 "HgN/A
11:00 PM
Sat, Aug 29
102 °FPassing clouds.17 mph11%29.89 "HgN/A
10:00 PM102 °FPassing clouds.20 mph11%29.89 "HgN/A
9:00 PM104 °FPassing clouds.10 mph9%29.89 "HgN/A
8:00 PM102 °FThunderstorms. Partly cloudy.23 mph13%29.89 "Hg4 mi
7:00 PM108 °FPassing clouds.20 mph12%29.80 "Hg5 mi
6:00 PM111 °FScattered clouds.9 mph4%29.80 "HgN/A
5:00 PM111 °FScattered clouds.14 mph3%29.77 "HgN/A
Weather by CustomWeather, © 2015

See weather overviewHow to use our weather pages